Location: Angwan Shehu
(11.2514°N, 7.4613°E)
Time: 11:37:50
(UTC+00:00)

SeaSat 1 - Pass Details

Date: 14 November 2019
Orbit: 745 x 747 km, 108.0° (Epoch: 11 December)

Event Time Altitude Azimuth Distance (km) Brightness Sun altitude
Rises 18:45:29 0° 174° (S) 3,174 5.8 -24.9°
Reaches altitude 10° 18:47:52 10° 182° (S) 2,251 5.1 -25.5°
Maximum altitude 18:52:23 38° 249° (WSW) 1,121 3.8 -26.5°
Drops below altitude 10° 18:56:56 10° 317° (NW) 2,252 5.2 -27.6°
Sets 18:59:20 0° 325° (NW) 3,176 5.9 -28.2°
